Location: Isle of Man Observatory
(54.1776°N, 4.6264°W)
Time: 01:55:18
(UTC+02:00)

Envisat - Visible Passes

Search period start: 23 June 2017 00:00
Search period end: 03 July 2017 00:00
Orbit: 764 x 766 km, 98.2° (Epoch: 21 June)

Date Brightness Start Highest point End Pass type
(mag) Time Alt. Az. Time Alt. Az. Time Alt. Az.
24 Jun 5.6 23:50:33 10° WSW 23:53:12 14° W 23:55:51 10° NW visible
30 Jun 5.9 00:07:03 10° W 00:08:00 10° W 00:08:58 10° WNW visible
02 Jul 5.7 23:54:25 10° WSW 23:56:43 13° W 23:59:03 10° NW visible
